Terug naar catalogus

ATLAS 5 CENTAUR DEB

ActiefHEO
NORAD 43995·DEBRIS·🇺🇸 United States

Gelanceerd Sep 17, 2014 vanaf Cape Canaveral Space Force Station

Loading…

Volgende Passages (komende 24 uur)

TLE

VersSource: Space-Track

Epoch: Sep 10, 2026, 10:45 UTC

1 43995U 14055BA  26253.44793982 -.00000117  00000-0  00000-0 0  9999
2 43995  20.5602 125.4919 4759747 201.9030 128.0343  1.88991949 54688

Volg ATLAS 5 CENTAUR DEB in realtime met AllMySat

Download on the App Store